Date,TemperatureHighF,TemperatureAvgF,TemperatureLowF,DewpointHighF,DewpointAvgF,DewpointLowF,HumidityHigh,HumidityAvg,HumidityLow,PressureMaxIn,PressureMinIn,WindSpeedMaxMPH,WindSpeedAvgMPH,GustSpeedMaxMPH,PrecipitationSumIn
2013-2-1,9.4,-2.1,-14.3,4.8,-9.4,-21.5,82,71,59,30.31,29.99,5,1,10,0.00
2013-2-2,15.6,7.2,-0.9,12.4,2.2,-5.6,87,80,68,30.16,29.92,12,2,25,0.02
2013-2-3,15.2,11.5,6.7,8.5,5.7,1.3,85,77,69,30.11,29.91,9,2,19,0.03
2013-2-4,20.8,10.4,0.6,17.3,5.3,-4.1,91,80,66,30.06,29.68,8,2,12,0.02
2013-2-5,30.8,19.0,9.4,29.0,14.1,3.4,95,81,70,30.07,29.65,11,2,18,0.01
2013-2-6,33.5,20.3,5.8,26.5,15.3,1.2,86,81,74,30.06,29.81,8,2,18,0.00
2013-2-7,26.1,22.9,19.4,21.7,18.9,15.0,92,84,76,30.28,29.99,7,2,14,0.00
2013-2-8,26.7,20.0,9.9,20.9,15.3,6.3,89,82,68,30.31,30.05,8,2,18,0.00
2013-2-9,32.0,28.8,22.7,29.7,25.9,19.7,94,89,85,30.06,29.79,11,4,20,0.07
2013-2-10,30.1,27.5,25.1,28.6,26.1,23.2,96,94,92,29.79,29.32,12,5,22,0.42
2013-2-11,25.1,20.9,17.2,23.4,17.3,12.9,93,86,79,30.05,29.52,11,5,27,0.00
2013-2-12,30.5,22.0,12.8,20.9,16.2,9.7,87,79,64,30.03,29.82,11,2,14,0.00
2013-2-13,37.0,27.5,17.3,31.7,23.7,13.8,95,86,66,29.82,29.57,8,2,18,0.02
2013-2-14,28.2,18.0,3.8,26.4,13.4,-1.2,93,82,69,30.25,29.69,11,4,21,0.00
2013-2-15,15.4,7.8,0.2,7.4,2.1,-4.2,83,77,64,30.34,30.25,7,2,13,0.00
2013-2-16,18.3,10.7,0.6,11.6,5.9,-3.6,85,81,73,30.25,30.01,5,1,7,0.00
2013-2-17,34.8,25.2,11.2,29.0,20.2,7.8,90,81,73,30.02,29.50,16,4,18,0.00
2013-2-18,34.5,16.4,-1.5,31.0,11.6,-7.5,90,81,69,30.02,29.50,14,7,31,0.00
2013-2-19,-0.5,-5.3,-11.0,-6.0,-12.4,-18.0,77,70,65,30.42,30.01,18,7,26,0.00
2013-2-20,6.4,-4.1,-15.3,-2.5,-11.4,-21.9,75,70,61,30.44,30.33,4,1,7,0.00
2013-2-21,18.1,10.1,-0.9,10.7,2.8,-6.6,79,72,67,30.36,30.06,9,2,12,0.00
2013-2-22,23.0,18.3,11.8,18.1,14.6,8.7,90,85,73,30.06,29.90,10,2,13,0.04
2013-2-23,24.6,13.8,4.7,13.7,7.6,-0.4,87,77,53,29.94,29.86,5,1,7,0.00
2013-2-24,22.8,9.9,-3.3,12.8,4.1,-7.9,90,77,62,30.09,29.94,4,0,6,0.00
2013-2-25,26.2,18.2,7.4,22.9,15.5,3.8,93,89,85,30.10,30.02,3,0,5,0.00
2013-2-26,26.4,20.7,16.0,23.0,18.3,13.3,94,91,85,30.05,29.94,10,2,14,0.00
2013-2-27,28.0,19.9,13.1,21.2,15.3,8.9,89,82,65,30.10,29.96,12,5,24,0.00
2013-2-28,26.7,22.3,16.7,21.4,18.4,14.0,89,85,79,30.24,30.09,6,2,12,0.00